{"data":{"norad_id":65530,"epoch":"2026-09-20T21:58:50.917440Z","epoch_age_seconds":75998,"freshness":"FRESH","line1":"1 65530U 25200L   26263.91586710  .00015828  00000+0  49145-3 0  9993","line2":"2 65530  97.2855 330.2768 0000921  87.0248 273.1101 15.33453609 58701","mean_motion":15.33453609,"eccentricity":9.21e-5,"inclination_deg":97.2855,"raan_deg":330.2768,"arg_perigee_deg":87.0248,"mean_anomaly_deg":273.1101,"bstar":0.00049145,"rev_number":5870,"period_min":93.905677455678,"perigee_km":464.88725968591,"apogee_km":466.14786085591,"semimajor_km":6843.6545602709,"source":"CELESTRAK","updated_at":"2026-09-21T09:00:35.649610Z"}}